Columbus, OH

5:04 PM EST on February 24, 2018 (GMT -0500)
Port Columbus International

Weather History for KCMH - February, 2012

Change the Weather History Date:

Sunday, February 26, 2012

  Actual Average Record
Temperature  
Mean Temperature 34 °F 36 °F  
Max Temperature 48 °F 44 °F 75 °F (2000)
Min Temperature 20 °F 27 °F -10 °F (1963)
Degree Days  
Heating Degree Days 31 29  
Month to date heating degree days 751 845  
Since 1 July heating degree days 3390 3937  
Cooling Degree Days 0 0  
Month to date cooling degree days 0 0  
Year to date cooling degree days 0 0  
Moisture  
Dew Point 18 °F    
Average Humidity 57    
Maximum Humidity 84    
Minimum Humidity 29    
Precipitation  
Precipitation 0.00 in 0.09 in 1.55 in (1887)
Month to date precipitation 1.25 2.09  
Year to date precipitation 5.07 4.82  
Snow  
Snow 0.00 in 0.20 in 5.20 in (1894)
Month to date snowfall 5.4 5.7  
Since 1 July snowfall 11.9 21.0  
Snow Depth 0.00 in    
Sea Level Pressure  
Sea Level Pressure 30.35 in    
Wind  
Wind Speed 6 mph (SSE)    
Max Wind Speed 17 mph    
Max Gust Speed 22 mph    
Visibility 10 miles    
Events      
T = Trace of Precipitation, MM = Missing Value Source: NWS Daily Summary

Daily Weather History Graph

Daily Weather History Graph

Search for Another Location

Airport or City:

Trip Planner

Search our weather history database for the weather conditions in past years. The results will help you decide how hot, cold, wet, or windy it might be!

Date:

Astronomy

Feb. 26, 2012 Rise Set
Actual Time 7:10 AM EST 6:19 PM EST
Civil Twilight 6:42 AM EST 6:46 PM EST
Nautical Twilight 6:11 AM EST 7:18 PM EST
Astronomical Twilight 5:40 AM EST 7:49 PM EST
Moon 9:04 AM EST (2/26) 11:16 PM EST (2/26)
Length of Visible Light 12h 04m
Length of Day
11h 09m
Waxing Crescent, 20% of the Moon is Illuminated
Feb 26
Waxing Crescent
Feb 29
First Quarter
Mar 8
Full
Mar 14
Last Quarter
Mar 22
New

Hourly Weather History & Observations

Time (EST) Temp. Windchill Dew Point Humidity Pressure Visibility Wind Dir Wind Speed Gust Speed Precip Events Conditions
12:51 AM 26.1 °F 20.5 °F 18.0 °F 71% 30.40 in 10.0 mi West 4.6 mph - N/A   Clear
1:51 AM 24.1 °F - 17.1 °F 75% 30.41 in 10.0 mi Calm Calm - N/A   Clear
2:51 AM 23.0 °F - 18.0 °F 81% 30.40 in 10.0 mi Calm Calm - N/A   Clear
3:51 AM 21.2 °F 16.4 °F 17.6 °F 86% 30.36 in 10.0 mi East 3.5 mph - N/A   Clear
4:51 AM 21.9 °F - 17.1 °F 82% 30.42 in 10.0 mi Calm Calm - N/A   Clear
5:51 AM 21.0 °F 16.2 °F 18.0 °F 88% 30.44 in 10.0 mi ESE 3.5 mph - N/A   Clear
6:51 AM 21.2 °F - 15.8 °F 80% 30.42 in 10.0 mi Calm Calm - N/A   Clear
7:51 AM 21.9 °F 17.2 °F 17.1 °F 82% 30.46 in 10.0 mi South 3.5 mph - N/A   Clear
8:51 AM 26.1 °F 21.9 °F 18.0 °F 71% 30.48 in 10.0 mi South 3.5 mph - N/A   Clear
9:51 AM 30.9 °F 27.5 °F 18.0 °F 59% 30.46 in 10.0 mi Variable 3.5 mph - N/A   Clear
10:51 AM 34.0 °F 27.2 °F 18.0 °F 52% 30.44 in 10.0 mi SSE 8.1 mph - N/A   Clear
11:51 AM 37.9 °F 32.1 °F 19.0 °F 47% 30.41 in 10.0 mi SSE 8.1 mph 16.1 mph N/A   Clear
12:51 PM 39.9 °F 34.5 °F 19.0 °F 43% 30.39 in 10.0 mi South 8.1 mph - N/A   Clear
1:51 PM 43.0 °F 36.0 °F 18.0 °F 37% 30.35 in 10.0 mi South 13.8 mph - N/A   Clear
2:51 PM 45.0 °F 38.5 °F 17.1 °F 33% 30.32 in 10.0 mi South 13.8 mph - N/A   Clear
3:51 PM 48.0 °F - 18.0 °F 30% 30.30 in 10.0 mi SSE 13.8 mph - N/A   Clear
4:51 PM 46.9 °F - 18.0 °F 32% 30.28 in 10.0 mi South 12.7 mph - N/A   Clear
5:51 PM 46.0 °F 40.6 °F 17.1 °F 31% 30.27 in 10.0 mi South 11.5 mph - N/A   Clear
6:51 PM 42.1 °F 37.7 °F 18.0 °F 38% 30.27 in 10.0 mi SE 6.9 mph - N/A   Clear
7:51 PM 41.0 °F 35.8 °F 18.0 °F 40% 30.26 in 10.0 mi SE 8.1 mph - N/A   Clear
8:51 PM 39.9 °F 33.4 °F 18.0 °F 41% 30.25 in 10.0 mi SE 10.4 mph - N/A   Clear
9:51 PM 39.0 °F 34.0 °F 18.0 °F 43% 30.24 in 10.0 mi SE 6.9 mph - N/A   Clear
10:51 PM 37.9 °F 35.5 °F 18.0 °F 45% 30.24 in 10.0 mi SE 3.5 mph - N/A   Clear
11:51 PM 36.0 °F - 19.9 °F 52% 30.25 in 10.0 mi Calm Calm - N/A   Clear